Simultaneous Nadir Overpasses (SNOs) Predictions

Prediction of SNOs between METOP-C and LANDSAT-8 Satellite Orbit:

Table of predicted SNOs for the next 14.0 days since TLE Epoch: 6/13/2020
Index Date (METOP-C) Time (METOP-C) Lat,Lon (METOP-C) SZA (METOP-C ) Date (LANDSAT-8) Time (LANDSAT-8) Lat,Lon (LANDSAT-8) SZA (LANDSAT-8 ) Distance(km) Time Diff (sec)
1 06/15/2020 14:18:27 -81.12,-174.76 120.07 06/15/2020 14:18:57 -81.13,-174.64 120.04 2.15 30
2 06/15/2020 15:09:04 81.16, -6.36 60.07 06/15/2020 15:08:22 81.16, -6.55 60.03 3.25 42
3 06/18/2020 09:52:49 -81.13,-108.16 120.14 06/18/2020 09:53:14 -81.12,-108.26 120.14 1.77 25
4 06/18/2020 10:43:27 81.15, 59.85 59.95 06/18/2020 10:42:39 81.15, 59.81 59.93 0.69 48
5 06/21/2020 05:27:11 -81.12, -41.96 120.20 06/21/2020 05:27:30 -81.12, -41.92 120.19 0.71 19
6 06/21/2020 06:17:49 81.14, 126.04 59.89 06/21/2020 06:16:55 81.14, 126.13 59.87 1.45 54
7 06/24/2020 01:01:33 -81.13, 24.61 120.16 06/24/2020 01:01:46 -81.13, 24.76 120.14 2.59 13
8 06/24/2020 01:52:11 81.15,-167.38 59.93 06/24/2020 01:51:11 81.16,-167.21 59.93 3.12 60
9 06/26/2020 20:35:55 -81.13, 91.17 120.07 06/26/2020 20:36:03 -81.12, 91.04 120.09 2.45 8




NCC Satellite Simultaneous Nadir Overpasses (SNOs) Prediction Service
